skip to main content

Salvage Dealers List

Click on any column heading to sort by that column or use the search field below to enter search terms.

Click on a Business Name for more detailed information about that dealer.

Business NamePhonePhysical AddressCityZipDealerIDLicense NumberExpires
AFFORDABLE SALES(281) 987-03005204 NORTHINGTONHOUSTON77039308371016308372015-07-01 00:00:00
AFFORDABLES PLUS AUTO SALES(832) 267-34501310 HANCOCKPASADENA77502472390572472392015-05-17 00:00:00
AFFORDABLES PLUS AUTO SALES(832) 267-34501310 HANCOCKPASADENA77502472390576472392015-05-20 00:00:00
AFRICAN GIFT STORE(757) 342-89272801 WALNUT BEND LN #55HOUSTON77042443101012443102015-08-09 00:00:00
AG AUTO SALES(713) 870-0875111 BLUE BELLHOUSTON77037458471012458472015-10-27 00:00:00
AG CARS(281) 435-108210211 ANTELOPE ALLEYMISSOURI CITY77459551150794551152015-09-23 00:00:00
AG MOTORS(713) 884-087217930 SUNSHINE TRACE LANERICHMOND77407480440795480442015-09-20 00:00:00
AG MOTORS(713) 884-087217930 SUNSHINE TRACE LANERICHMOND77407480440796480442015-09-20 00:00:00
AG MOTORS(956) 237-0116201 E GUERRERO STLAREDO78040489392406489392016-02-15 00:00:00
AGAPE LOVE(713) 683-10402008 D WIRT RDHOUSTON77055354811012354812016-03-29 00:00:00
AGHADE VENTURE AUTO BROKER(512) 803-51691108 DORAS DRPFLUGERVILLE78660392492272392492016-01-20 00:00:00
AGHADE VENTURE AUTO BROKER(512) 803-51691108 DORAS DRPFLUGERVILLE78660392492276392492015-11-07 00:00:00
AGOSTUS MOTOR GROUP LLC(832) 230-44547110 ROMONA BLVD STE 2HOUSTON77086552751012552752015-11-03 00:00:00
AGOSTUS MOTOR GROUP LLC(832) 230-44547110 ROMONA BLVD STE 2HOUSTON77086552751016552752015-11-03 00:00:00
AGREDA AUTO SALES(817) 521-49671416 SILVERSIDE DR 30GRAPEVINE76051557222202557222016-01-15 00:00:00
AGREDA AUTO SALES(817) 521-49671416 SILVERSIDE DR 30GRAPEVINE76051557222206557222016-01-15 00:00:00
AGU MOTORS INTERNATIONAL(972) 748-41607911 HUNNICUT RD #DDALLAS75228515870572515872015-04-11 00:00:00
AGUILAR AUTO SALE(409) 457-467113019 TELEVISTAHOUSTON77037507651012507652015-11-09 00:00:00
AGUILAR AUTO SALE(409) 457-467113019 TELEVISTAHOUSTON77037507651016507652015-11-09 00:00:00
AGUILAR AUTO SALES(214) 669-10472424 PEBBLEBROOKIRVING75060520300576520302015-06-03 00:00:00
AGUILAR AUTOSALES(915) 412-233713140 GUITAR DRSAN ELIZARIO79849506360712506362015-12-04 00:00:00
AGUILAR BROS(956) 687-89306824 S MC COLL RDMC ALLEN78503310631082310632015-09-05 00:00:00
AGUILAR BROS(956) 687-89306824 S MC COLL RDMC ALLEN78503310631086310632015-09-05 00:00:00
AGUILAR TRUCK SALES(620) 339-9070216 W. MCFARLANDKERRVILLE78020553641332553642015-10-28 00:00:00
AGUILAR TRUCK SALES(620) 339-9070216 W. MCFARLANDKERRVILLE78020553641336553642015-10-28 00:00:00
AGUILARS AUTO SALES(956) 968-43702800 NORTH WESTGATEWESLACO78596515521082515522016-02-13 00:00:00
AGUILARS AUTO SALES(956) 968-43702800 NORTH WESTGATEWESLACO78596515521086515522016-03-21 00:00:00
AGUILERA AUTO SALES(713) 643-25727815 PECAN VILLASHOUSTON77061388561016388562015-07-30 00:00:00
AGUILERA AUTO SALES(806) 771-50202314 COLGATE ST.LUBBOCK79415471711522471712015-04-28 00:00:00
AGUIRRE AUTO SALES(832) 620-655710703 SHARPVIEWHOUSTON77072559361012559362016-02-24 00:00:00
AGUIRRES AUTO SALES LLC(956) 843-89912105 E. HIGHWAY 281HIDALGO78557516601086516602015-04-03 00:00:00
AGUSTIN C ARGUELES(214) 515-92701525 PARMA CTIRVING75060398450576398452016-02-15 00:00:00
AGUSTIN CERDA MARTINEZ(214) 793-04062038 S BELTLINE RDDALLAS75253382580575382582015-04-24 00:00:00
AGUTEX INC(281) 827-02752207 SILVERLEAF DRMISSOURI CITY77489448430792448432015-06-21 00:00:00
AH AUTO SALES(210) 325-5287703 S GEN MCMULLENSAN ANTONIO78237466350152466352016-03-10 00:00:00
AH AUTO SALES(210) 325-5287703 S GEN MCMULLENSAN ANTONIO78237466350156466352016-03-10 00:00:00
AHB AUTOMOBILE DEALER AND TRANSPORTATION SERVICES(469) 245-89151521 HOLLOW OAK DRDESOTO75115537110572537112016-03-04 00:00:00
AHMED ENTERPRISES DBA REPLACEMENT RENT A CAR(832) 512-663011955 BISSONNETHOUSTON77099368621012368622015-06-21 00:00:00
AIDA LUZ ORTIZ(909) 587-92813233 NORWALK AVE #110DALLAS75220555020572555022015-11-19 00:00:00
AIDA LUZ ORTIZ(909) 587-92813233 NORWALK AVE #110DALLAS75220555020576555022015-11-19 00:00:00
AILEEN IMPORTS(832) 526-8483414 BUSH STHOUSTON7706096941012096942015-11-12 00:00:00
AILEEN IMPORTS(832) 526-8483414 BUSH STHOUSTON7706096941016096942016-01-31 00:00:00
AIRLINE BODY SHOP(713) 699-38267320 AIRLINE DRHOUSTON77076402651012402652015-04-22 00:00:00
AIRLINE MOTORCYCLE(713) 699-99147000 AIRLINE DRHOUSTON7707613821016013822015-07-01 00:00:00
AIRLINE USED AUTO PARTS/AIRLINE IMPORTS(281) 448-200010616 AIRLINE DRHOUSTON770372411012002412016-04-11 00:00:00
AIRLINE USED AUTO PARTS/AIRLINE IMPORTS(281) 448-200010616 AIRLINE DRHOUSTON770372411015002412016-04-11 00:00:00
AIRLINE USED AUTO PARTS/AIRLINE IMPORTS(281) 448-200010616 AIRLINE DRHOUSTON770372411016002412016-04-11 00:00:00
AIRPORT AUTO CENTER(512) 524-06061134 AIRPORT BLVDAUSTIN78702446252272446252015-04-20 00:00:00
AISHAAD AUTO(972) 339-89722377 FOUNTAIN GATE DRIVELITTLE ELM75068541780612541782015-07-28 00:00:00
AISHAAD AUTO(972) 339-89782377 FOUNTAIN GATE DRIVELITTLE ELM75068541780612541782015-07-28 00:00:00

Copyright © 2015 Texas Department of Motor Vehicles. All rights reserved. - 4000 Jackson Ave, Austin, TX 78731